www.pogodaiklimat.ru

Погода и климат >> Архив погоды >> Финляндия >> Саариселькя


ПОГОДА в Саариселькя

  • Прогноз погоды в Саариселькя
  • Монитор погоды в Саариселькя

АРХИВ ПОГОДЫ в Саариселькя

Время (UTC), дата Ветер
(напр.,м/с)
 
Видим.   Явления Облачность Т
(С)
Тd
(С)
f
(%)
Тe
(С)
Тes
(С)
Комфортность P
(гПа)
Po
(гПа)
Тmin
(С)
Tmax
(С)
R
(мм)
R24
(мм)
S
(см)
07 11.07 С 5-7
{7}
н/о н/о +5.1 +2.3 82 +1 +1 1014.3 961.2
08 11.07 С 5-7
{7}
н/о н/о +6.0 +2.2 77 +2 +2 1014.0 961.2
09 11.07 С 5-8
{8}
н/о н/о +7.2 +2.1 70 +3 +3 1013.7 961.0
10 11.07 С 5 н/о н/о +8.9 +2.5 64 +6 +6 1013.3 961.0
11 11.07 С 5-8
{9}
н/о н/о +10.0 +2.7 60 +7 +7 1012.8 960.7
12 11.07 СВ 6-8
{9}
н/о н/о +10.9 +1.4 52 +8 +8 1012.5 960.6
13 11.07 СВ 5 н/о н/о +11.0 +1.2 51 +9 +9 1012.4 960.5
14 11.07 СВ 5 н/о н/о +11.7 +2.0 51 +10 +10 1012.3 960.5
15 11.07 С 7-9
{9}
н/о н/о +11.5 +3.0 56 +9 +9 1012.3 960.5
16 11.07 С 8 н/о н/о +10.9 +2.7 57 +8 +8 1012.4 960.5
17 11.07 С 8 н/о н/о +10.7 +2.2 56 +7 +7 1012.3 960.4
18 11.07 С 8-10
{11}
н/о н/о +10.0 +2.2 58 +6 +6 1012.6 960.5 +4.5 +12.5
19 11.07 С 7 н/о н/о +9.2 +2.2 62 +5 +5 1012.7 960.5
20 11.07 С 6 н/о н/о +7.8 +0.8 61 +4 +4 1013.1 960.6
21 11.07 С 6-8
{8}
н/о н/о +6.3 +0.1 64 +2 +2 1013.6 960.8
22 11.07 С 7 н/о н/о +5.0 +0.2 71 -0 -0 1013.8 960.7
23 11.07 С 8 н/о н/о +3.9 +0.5 78 -2 -2 1013.9 960.6
00 12.07 С 8-8
{10}
н/о н/о +2.9 +0.6 85 -4 -4 1014.0 960.5
01 12.07 С 8 н/о н/о +2.5 +0.2 85 -4 -4 1013.9 960.4
02 12.07 С 9 н/о н/о +3.2 +1.2 87 -4 -4 1013.9 960.5
03 12.07 С 7-10
{10}
н/о н/о +3.7 +1.8 87 -2 -2 1013.8 960.5
04 12.07 С 6-7
{9}
н/о н/о +4.6 +2.4 86 -1 -1 1013.7 960.6
05 12.07 С 7-8
{10}
н/о н/о +6.0 +2.6 79 +1 +1 1013.6 960.7
06 12.07 С 7-9
{9}
н/о н/о +7.1 +2.8 74 +3 +3 1013.3 960.6 +2.5 +10.0
07 12.07 С 7-10
{10}
н/о н/о +8.2 +2.0 65 +4 +4 1013.2 960.7
08 12.07 С 7 н/о н/о +9.0 +1.9 61 +5 +5 1012.9 960.6
09 12.07 С 8-10
{11}
н/о н/о +10.3 +1.8 56 +7 +7 1012.4 960.4
10 12.07 С 8 н/о н/о +10.9 +1.9 54 +8 +8 1012.2 960.3
11 12.07 С 9 н/о н/о +11.5 +0.6 47 +8 +8 1012.0 960.2
12 12.07 С 9-12
{13}
н/о н/о +12.8 +0.3 42 +10 +10 1011.5 960.0
13 12.07 С 10-13
{14}
н/о н/о +12.9 -1.5 37 +10 +10 1011.5 960.0
14 12.07 С 10 н/о н/о +13.0 -1.5 37 +10 +10 1011.5 960.0
15 12.07 С 10-13
{14}
н/о н/о +12.2 -1.1 40 +9 +9 1011.5 959.9
16 12.07 С 10 н/о н/о +12.1 -0.3 42 +9 +9 1011.6 959.9
17 12.07 СВ 9-12
{12}
н/о н/о +11.1 -2.0 40 +8 +8 1012.0 960.2
18 12.07 СВ 7-9
{12}
н/о н/о +10.3 -0.5 47 +7 +7 1012.4 960.4 +6.8 +13.3
19 12.07 СВ 8-9
{10}
н/о н/о +9.1 -0.4 51 +5 +5 1012.8 960.5
20 12.07 СВ 7 н/о н/о +7.7 -0.5 56 +4 +4 1013.6 961.0
21 12.07 СВ 7-8
{10}
н/о н/о +5.8 -1.1 61 +1 +1 1014.0 961.0
22 12.07 С 7 н/о н/о +5.3 -0.6 66 0 0 1014.1 961.0
23 12.07 С 7 н/о н/о +3.9 +0.3 77 -2 -2 1014.5 961.1
00 13.07 С 6-7
{8}
н/о н/о +2.9 +1.3 89 -3 -3 1014.7 961.2
01 13.07 СВ 6 н/о н/о +2.6 +2.0 96 -4 -4 1015.1 961.5
02 13.07 С 5-6
{7}
н/о н/о +2.6 +2.5 99 -3 -3 1015.3 961.7
03 13.07 С 6-7
{8}
н/о н/о +2.9 +2.8 99 -3 -3 1015.1 961.6
04 13.07 С 6 н/о н/о +3.0 +2.9 99 -3 -3 1015.3 961.8
05 13.07 С 6 н/о н/о +3.2 +3.2 100 -3 -3 1015.4 961.9
06 13.07 С 6-8
{9}
н/о н/о +3.9 +3.9 100 -2 -2 1015.3 961.9 +2.4 +10.3
07 13.07 С 7-9
{9}
н/о н/о +4.1 +4.1 100 -2 -2 1015.3 962.0
08 13.07 С 7-8
{10}
н/о н/о +4.1 +4.1 100 -2 -2 1015.5 962.2
09 13.07 С 6-8
{9}
н/о н/о +4.5 +4.5 100 -1 -1 1015.5 962.3
10 13.07 С 7 н/о н/о +5.1 +5.1 100 -1 -1 1015.5 962.3
11 13.07 С 6-8
{8}
н/о н/о +5.8 +5.5 98 +1 +1 1015.2 962.2
12 13.07 С 6 н/о н/о +6.6 +5.4 92 +2 +2 1014.9 962.1
13 13.07 С 5 н/о н/о +8.1 +5.7 85 +4 +4 1014.6 962.1
14 13.07 С 5 н/о н/о +9.0 +5.6 79 +6 +6 1014.4 962.1
15 13.07 С 6-8
{9}
н/о н/о +10.1 +5.9 75 +7 +7 1014.2 962.1
16 13.07 СВ 6 н/о н/о +10.2 +6.0 75 +7 +7 1014.1 961.9
17 13.07 СВ 6 н/о н/о +10.3 +5.9 74 +7 +7 1014.1 962.0
18 13.07 В 4-5
{6}
н/о н/о +9.3 +5.8 79 +6 +6 1014.2 961.9 +3.7 +10.7
19 13.07 СВ 3-4
{5}
н/о н/о +9.4 +5.0 74 +7 +7 1014.1 961.8
20 13.07 В 3-4
{5}
н/о н/о +8.5 +5.7 83 +6 +6 1014.4 961.9
21 13.07 В 5-5
{5}
н/о н/о +6.9 +5.6 91 +3 +3 1014.6 961.8
22 13.07 В 4 н/о н/о +6.0 +5.3 95 +2 +2 1014.8 961.9
23 13.07 СВ 3 н/о н/о +5.9 +5.4 97 +2 +2 1015.0 962.0
00 14.07 СВ 5-6
{6}
н/о н/о +4.8 +4.6 99 -0 -0 1015.4 962.2
01 14.07 СВ 5 н/о н/о +4.6 +3.6 93 -0 -0 1015.4 962.1
02 14.07 СВ 5 н/о н/о +4.1 +3.7 97 -1 -1 1015.6 962.3
03 14.07 СВ 6-8
{8}
н/о н/о +4.2 +2.9 91 -1 -1 1015.6 962.3
04 14.07 СВ 6 н/о н/о +4.7 +3.1 89 -1 -1 1015.6 962.4
05 14.07 СВ 6-10
{10}
н/о н/о +5.7 +3.2 84 +1 +1 1015.2 962.2
06 14.07 СВ 6-8
{9}
н/о н/о +6.3 +3.3 81 +2 +2 1015.0 962.1 +4.0 +9.7
07 14.07 СВ 6 н/о н/о +6.7 +3.3 79 +2 +2 1014.9 962.1
08 14.07 СВ 5-6
{7}
н/о н/о +7.1 +3.5 78 +3 +3 1015.1 962.4
09 14.07 С 5-6
{7}
н/о н/о +7.7 +3.6 75 +4 +4 1015.0 962.4
10 14.07 С 6 н/о н/о +8.1 +3.9 75 +4 +4 1014.9 962.4
11 14.07 СВ 5 н/о н/о +8.4 +3.4 71 +5 +5 1014.8 962.3
12 14.07 СВ 7-8
{10}
н/о н/о +7.7 +3.2 73 +3 +3 1014.9 962.3
13 14.07 С 4-6
{8}
н/о н/о +8.4 +3.8 73 +5 +5 1014.4 962.0
14 14.07 С 5-7
{8}
н/о н/о +8.5 +2.2 65 +5 +5 1014.4 961.9
15 14.07 С 5-7
{7}
н/о н/о +8.8 +2.4 64 +6 +6 1014.3 961.9
16 14.07 СВ 5 н/о н/о +8.6 +2.2 64 +5 +5 1014.4 962.0
17 14.07 С 5 н/о н/о +8.6 +2.2 64 +5 +5 1014.3 961.8
18 14.07 СВ 4-6
{6}
н/о н/о +8.0 +2.0 66 +5 +5 1014.1 961.6 +6.1 +9.1
19 14.07 СВ 4-5
{6}
н/о н/о +7.4 +2.3 70 +4 +4 1014.2 961.5
20 14.07 СВ 3 н/о н/о +6.6 +2.7 76 +4 +4 1014.4 961.6
21 14.07 В 3-4
{5}
н/о н/о +5.6 +2.7 82 +2 +2 1014.6 961.6
22 14.07 СВ 3-4
{4}
н/о н/о +5.3 +2.1 80 +2 +2 1014.6 961.6
23 14.07 СВ 3 н/о н/о +5.0 +1.6 79 +2 +2 1014.6 961.5
00 15.07 СВ 3-4
{4}
н/о н/о +4.9 +1.6 79 +2 +2 1014.6 961.5
01 15.07 СВ 3 н/о н/о +5.2 +2.6 83 +2 +2 1014.5 961.4
02 15.07 СВ 3-3
{4}
н/о н/о +5.3 +3.3 87 +2 +2 1014.5 961.4
03 15.07 В 3-3
{4}
н/о н/о +6.8 +3.6 80 +4 +4 1014.1 961.4
04 15.07 СВ 3-4
{5}
н/о н/о +6.8 +3.8 81 +4 +4 1014.3 961.5
05 15.07 В 3 н/о н/о +7.7 +3.6 75 +5 +5 1014.0 961.4
06 15.07 В 4-6
{6}
н/о н/о +8.0 +1.5 63 +5 +5 1013.8 961.3 +4.5 +8.3
07 15.07 В 3-5
{7}
н/о н/о +8.4 +2.8 68 +6 +6 1013.6 961.2
08 15.07 В 4-4
{6}
н/о н/о +8.6 +2.3 65 +6 +6 1013.7 961.3
09 15.07 В 5-6
{6}
н/о н/о +8.6 +3.0 68 +5 +5 1013.7 961.3
10 15.07 В 2 н/о н/о +9.0 +2.2 62 +8 +8 1013.6 961.3
11 15.07 СВ 4 н/о н/о +9.8 +2.9 62 +7 +7 1013.3 961.2
12 15.07 В 3-5
{7}
н/о н/о +10.6 +1.7 54 +9 +9 1013.1 961.1
13 15.07 СВ 5 н/о н/о +8.6 +2.7 66 +5 +5 1013.8 961.4
14 15.07 В 3-4
{5}
н/о н/о +9.8 +2.0 58 +8 +8 1013.5 961.3
15 15.07 С 2-4
{5}
н/о н/о +10.1 +2.6 60 +9 +9 1013.4 961.3
16 15.07 СВ 5 н/о н/о +8.5 +4.4 75 +5 +5 1014.1 961.6
17 15.07 СВ 2 н/о н/о +8.8 +3.5 69 +7 +7 1014.0 961.6
18 15.07 В 2-3
{3}
н/о н/о +9.1 +2.5 63 +8 +8 1013.8 961.5 +7.5 +10.9
19 15.07 СВ 4 н/о н/о +8.5 +3.1 69 +6 +6 1014.0 961.6
20 15.07 В 4 н/о н/о +6.7 +2.9 77 +3 +3 1014.6 961.8
21 15.07 В 4-5
{6}
н/о н/о +6.8 +3.5 79 +3 +3 1014.8 962.0
22 15.07 В 4-4
{5}
н/о н/о +6.7 +3.7 81 +3 +3 1014.9 962.1
23 15.07 В 3-4
{5}
н/о н/о +5.6 +3.6 87 +2 +2 1015.3 962.3
00 16.07 В 4-5
{5}
н/о н/о +5.9 +3.5 85 +2 +2 1015.3 962.4
01 16.07 В 4-5
{5}
н/о н/о +5.5 +3.5 87 +1 +1 1015.6 962.5
02 16.07 В 4 н/о н/о +4.8 +3.6 92 0 0 1015.9 962.7
03 16.07 В 4-5
{5}
н/о н/о +4.9 +3.9 93 +1 +1 1016.1 962.9
04 16.07 СВ 3 н/о н/о +6.9 +5.0 88 +4 +4 1015.9 963.0
05 16.07 СВ 3-7
{7}
н/о н/о +7.4 +4.4 81 +5 +5 1016.0 963.3
06 16.07 СВ 5-6
{8}
н/о н/о +7.0 +3.0 76 +3 +3 1016.0 963.2 +4.2 +9.1
07 16.07 СВ 4-6
{7}
н/о н/о +7.2 +2.6 73 +4 +4 1016.0 963.3
08 16.07 СВ 4 н/о н/о +7.3 +2.3 71 +4 +4 1016.1 963.3
09 16.07 СВ 5-6
{7}
н/о н/о +7.8 +2.8 71 +4 +4 1015.9 963.2
10 16.07 СВ 4-6
{7}
н/о н/о +7.8 +2.7 70 +5 +5 1016.1 963.4
11 16.07 С 6 н/о н/о +7.9 +3.1 72 +4 +4 1016.0 963.4
12 16.07 СВ 5-6
{8}
н/о н/о +7.6 +3.3 74 +4 +4 1016.1 963.3
14 16.07 С 4-6
{6}
н/о н/о +8.2 +3.1 70 +5 +5 1015.8 963.2
15 16.07 С 5-7
{7}
н/о н/о +8.6 +2.6 66 +5 +5 1015.8 963.3
16 16.07 С 5 н/о н/о +8.1 +3.2 71 +5 +5 1016.0 963.4
17 16.07 С 4 н/о н/о +8.0 +4.2 77 +5 +5 1015.9 963.2
18 16.07 СВ 6-7
{8}
н/о н/о +7.0 +4.4 84 +3 +3 1016.2 963.4 +6.9 +9.0
19 16.07 С 6-8
{8}
н/о н/о +6.5 +5.0 90 +2 +2 1016.0 963.1
20 16.07 С 5-7
{8}
н/о н/о +5.9 +4.9 93 +1 +1 1016.0 963.0
21 16.07 С 7-9
{9}
н/о н/о +5.0 +4.7 98 -1 -1 1016.3 963.1
22 16.07 С 6-7
{8}
н/о н/о +4.7 +4.7 100 -1 -1 1016.4 963.2
23 16.07 С 5-8
{8}
н/о н/о +4.8 +4.8 100 -0 -0 1016.0 962.8
00 17.07 С 6-8
{8}
н/о н/о +5.0 +5.0 100 -0 -0 1015.8 962.6
01 17.07 СВ 4 н/о н/о +5.1 +5.1 100 +1 +1 1015.8 962.6
02 17.07 С 5 н/о н/о +5.1 +5.1 100 0 0 1015.6 962.5
03 17.07 С 6-7
{7}
н/о н/о +5.0 +5.0 100 -0 -0 1015.3 962.2
04 17.07 С 6-6
{7}
н/о н/о +5.3 +5.3 100 0 0 1015.1 962.0
05 17.07 С 5 н/о н/о +5.2 +5.2 100 0 0 1015.0 962.0
06 17.07 С 5-6
{6}
н/о н/о +5.9 +5.9 100 +1 +1 1014.5 961.5 +4.6 +7.0
07 17.07 СЗ 5-6
{6}
н/о н/о +6.4 +6.4 100 +2 +2 1014.2 961.3
08 17.07 С 5-5
{6}
н/о н/о +6.9 +6.9 100 +3 +3 1014.1 961.3
09 17.07 СЗ 3-4
{5}
н/о н/о +7.6 +7.4 99 +5 +5 1013.9 961.3
10 17.07 СЗ 3 н/о н/о +7.7 +6.6 93 +5 +5 1013.8 961.2
11 17.07 СЗ 2 н/о н/о +8.3 +6.0 85 +6 +6 1013.6 961.1
12 17.07 З 3-5
{7}
н/о н/о +9.0 +6.5 84 +7 +7 1013.2 960.9
13 17.07 З 5 н/о н/о +9.2 +6.3 82 +6 +6 1013.0 960.7
14 17.07 З 4 н/о н/о +10.2 +5.2 71 +8 +8 1012.7 960.6
15 17.07 З 4-5
{6}
н/о н/о +10.4 +5.1 70 +8 +8 1012.7 960.7
16 17.07 З 3 н/о н/о +11.1 +4.9 66 +9 +9 1012.6 960.7
17 17.07 ЮЗ 4 н/о н/о +10.9 +4.9 66 +9 +9 1012.9 960.9
18 17.07 ЮЗ 2-3
{5}
н/о н/о +10.9 +4.5 65 +10 +10 1013.1 961.2 +5.7 +11.5
19 17.07 ЮЗ 3 н/о н/о +10.2 +5.9 75 +8 +8 1013.6 961.5
20 17.07 Ю 3 н/о н/о +8.8 +6.6 86 +6 +6 1014.1 961.7
21 17.07 ЮЗ 3-4
{5}
н/о н/о +8.7 +6.3 85 +6 +6 1014.5 962.1
22 17.07 Ю 5-6
{6}
н/о н/о +8.4 +6.0 85 +5 +5 1014.8 962.3
23 17.07 Ю 5 н/о н/о +8.2 +5.8 85 +5 +5 1015.2 962.6
00 18.07 Ю 5-6
{6}
н/о н/о +8.2 +5.5 83 +5 +5 1015.4 962.8
01 18.07 Ю 5 н/о н/о +8.0 +5.5 84 +4 +4 1015.7 963.1
02 18.07 Ю 5 н/о н/о +8.0 +5.7 85 +4 +4 1015.9 963.3
03 18.07 Ю 5-5
{6}
н/о н/о +8.5 +5.9 84 +5 +5 1016.1 963.6
04 18.07 Ю 3 н/о н/о +9.7 +5.8 77 +8 +8 1016.4 964.0
05 18.07 Ю 4 н/о н/о +11.1 +4.6 64 +9 +9 1016.2 964.1
06 18.07 ЮВ 4-6
{6}
н/о н/о +13.2 +4.6 56 +12 +12 1016.0 964.3 +7.9 +13.2

 

Местоположение метеостанции Саариселькя (Финляндия): широта 68.43 долгота 27.44 высота над уровнем моря 437 м.

В архиве по умолчанию представлена погода в Саариселькя за последнюю неделю. Архивные данные за месяц целиком и за предыдущие месяцы, начиная с января 2011 года, Вы можете получить, выбрав интересующий диапазон дат из раскрывающегося списка и нажав кнопку "Ввод!".


*Определитесь, кто Вы:
робот инопланетянин человек

Внимание! Время в таблицах - всемирное. Для получения местного времени необходимо прибавить поправку, которая равна 1 ч.

Смотрите также архив погоды в соседних городах и на ближайших метеорологических станциях:

Погода в Саариселькя (Финляндия) (2 км)
Погода в Аэропорту Ивало (Финляндия) (20 км)
Погода в Инари Раджайосеппи (Финляндия) (36 км)
Погода в Соданкила Вуотсо (Финляндия) (40 км)
Погода в Неллиме (Финляндия) (58 км)
Погода в Верховье Лотты (Мурманская область, Россия) (61 км)
Погода в Соданкила Локка (Финляндия) (69 км)
Погода на Острове Сеиталасса (Финляндия) (70 км)
Погода в Киттила Покка (Финляндия) (74 км)
Погода в Кааманене (Финляндия) (79 км)

Пояснения к столбцам:

Ветер - указаны скорость ветра в м/с - средняя за 10 мин, порывы в срок и между сроками (в фигурных скобках) и направление, откуда дует ветер: С - северный, СВ - северо-восточный, В - восточный, ЮВ - юго-восточный, Ю - южный, ЮЗ - юго-западный, З - западный, СЗ - северо-западный.
Видимость - горизонтальная дальность видимости в метрах или километрах. При видимости от 1 до 10 км при отсутствии осадков обычно наблюдается дымка, при ухудшении видимости до 1 км и менее - туман. В сухую погоду видимость может ухудшаться дымом, пылью или мглою.
Явления - указаны атмосферные явления, наблюдавшиеся в срок или в последний час перед сроком; фигурными скобками обозначены явления, наблюдавшиеся между сроками (за 1-3 часа до срока); квадратными скобками обозначены град или гололедные отложения с указанием их диаметра в мм.
Облачность - указаны через наклонную черту общая и нижняя облачность в баллах и высота нижней границы облаков в метрах; квадратными скобками обозначены формы облаков: Ci - перистые, Cs - перисто-слоистые, Cc - перисто-кучевые, Ac - высококучевые, As - высокослоистые, Sc - слоисто-кучевые, Ns - слоисто-дождевые, Cu - кучевые, Cb - кучево-дождевые. Подробнее классификацию облаков см. в Атласе облаков (PDF).
T - Температура воздуха - температура, измеренная на высоте 2 м над землей.
Td - Температура точки росы - температура, при понижении до которой содержащийся в воздухе водяной пар достигнет насыщения.
f - Относительная влажность воздуха - влажноcть воздуха, измеренная на высоте 2 м над землей.
Te - Эффективная температура - температура, которую ощущает одетый по сезону человек в тени. Характеристика душности погоды. При расчете учитывается влияние влажности воздуха и скорости ветра на теплоощущения человека.
Tes - Эффективная температура на солнце - температура, которую ощущает человек, с поправкой на солнечный нагрев. Характеристика знойности погоды. Зависит от высоты солнца над горизонтом, облачности и скорости ветра. Ночью, в пасмурную погоду, а также при ветре 12 м/с и более поправка равна нулю.
P - Атмосферное давление - приведенное к уровню моря атмосферное давление.
Po - Атмосферное давление - измеренное на уровне метеостанции атмосферное давление.
Tmin - Минимальная температура - минимум температуры воздуха на высоте 2 м над землей.
Tmax - Максимальная температура - максимум температуры воздуха на высоте 2 м над землей.
R - Количество осадков - Количество выпавших осадков за период времени, мм. При наведении курсора мыши на число - период времени, за который выпало указанное количество осадков.
R24 - Количество осадков - Количество выпавших осадков за 24 часа, мм.
S - Снежный покров - Высота снежного покрова, см. При наведении курсора мыши на число - состояние снежного покрова и степень покрытия местности в баллах.